Regional Weather Roundup
Issued by NWS

Home | Current Version | Previous Version | Graphics & Text | Print | Product List | Glossary On
Versions: 1 2 3 4 5 6 7 8 9 10 11 12 13 14 15 16 17 18 19 20 21 22 23 24 25 26 27 28 29 30 31 32 33 34 35 36 37 38 39 40 41 42 43 44 45 46 47 48 49 50
000
ASUS43 KIND 260509
RWRIN

WEATHER ROUNDUP FOR INDIANA
NATIONAL WEATHER SERVICE INDIANAPOLIS IN
100 AM EDT SAT JUL 26 2014

NOTE: "FAIR" INDICATES FEW OR NO CLOUDS BELOW 12,000 FEET WITH NO
SIGNIFICANT WEATHER AND/OR OBSTRUCTIONS TO VISIBILITY.

* - STATION DOES NOT REPORT WEATHER SUCH AS PRECIPITATION OR FOG.

+ - STATION NOT QUALITY CONTROLLED BY THE NATIONAL WEATHER SERVICE.
    USE DATA WITH CAUTION...ESPECIALLY DEWPOINT AND RELATIVE
    HUMIDITY OBSERVATIONS.

INZ001>003-010>013-019-020-260600-
NORTHWEST INDIANA

CITY           SKY/WX    TMP DP  RH WIND       PRES   REMARKS
GARY /AIRPORT/ MOCLDY    70  59  67 CALM      29.93F
KNOX *+        CLOUDY    64  59  83 S3        29.95S
LA PORTE +     MOCLDY    63  58  85 S5        29.96S
MICHIGAN CITY+ PTCLDY    63  55  77 SE3       29.95S
MONTICELLO +   CLOUDY    68  60  74 S5        29.96S
RENSSELAER +   CLOUDY    68  63  83 S6        29.95F
VALPARAISO     CLOUDY    65  59  81 S5        29.95S

$$

LMZ046-743>745-260600-
SOUTHERN LAKE MICHIGAN

STATION/POSITION TIME  TEMP WIND        PRES
                       AIR  DIR/SP/G
                 (UTC) (F)  (DEG/KT/KT) (MB)
MICHIGAN CITY    0500   66  110/  4/  6   N/A

$$

INZ004-005-014>016-021>024-260600-
NORTH CENTRAL INDIANA

CITY           SKY/WX    TMP DP  RH WIND       PRES   REMARKS
GOSHEN         CLEAR     62  58  86 CALM      29.97F
LOGANSPORT +   CLOUDY    64  59  82 S5        29.97F
PERU/GRISSOM   CLOUDY    66  64  94 S6        29.98F
ROCHESTER +    MOCLDY    68  59  73 S5        29.97F
SOUTH BEND     CLEAR     65  57  75 S6        29.96F
WARSAW +       CLEAR     63  57  82 CALM      29.99S

$$

INZ006>009-017-018-025>027-260600-
NORTHEAST INDIANA

CITY           SKY/WX    TMP DP  RH WIND       PRES   REMARKS
ANGOLA *+      CLEAR     59  57  94 CALM      29.99S
AUBURN +       CLEAR     61  55  82 CALM      30.00R
FORT WAYNE     MOCLDY    64  58  80 S3        30.00S
HUNTINGTON +   PTCLDY    63  58  84 CALM      29.99S

$$

INZ028-029-035-036-043>045-051>053-260600-
WEST CENTRAL INDIANA

CITY           SKY/WX    TMP DP  RH WIND       PRES   REMARKS
GREENCASTLE +  CLOUDY    64  61  88 CALM      30.01S
LAFAYETTE      CLOUDY    68  59  73 S6        29.96F
TERRE HAUTE    CLOUDY    66  61  84 S6        29.99S

$$

INZ030>032-037>040-046>048-054>057-064-065-260600-
CENTRAL INDIANA

CITY           SKY/WX    TMP DP  RH WIND       PRES   REMARKS
CP ATTERBURY + CLOUDY    64  61  88 CALM      30.01S
GREENWOOD *+   CLOUDY    70  64  83 S3        30.02
INDIANAPOLIS   CLOUDY    69  60  73 S6        29.99F
-EAGLE CREEK   CLOUDY    69  60  73 CALM      30.00S
KOKOMO *+      MOCLDY    64  61  88 S6        29.99S
MARION +       MOCLDY    62  59  90 S3        30.00F
MT COMFORT *+  MOCLDY    66  66 100 S5        30.01S
SHELBYVILLE    CLOUDY    69  63  81 S5        30.01R
ZIONSVILLE +   CLOUDY    68  59  73 SW3       30.01S

$$

INZ033-034-041-042-049-050-058-059-260600-
EAST CENTRAL INDIANA

CITY           SKY/WX    TMP DP  RH WIND       PRES   REMARKS
MUNCIE         CLOUDY    68  58  70 S5        30.01S

$$

INZ060-061-067>069-081>083-085>088-260600-
SOUTHWEST INDIANA

CITY           SKY/WX    TMP DP  RH WIND       PRES   REMARKS
EVANSVILLE     CLEAR     65  60  84 CALM      30.01R
HUNTINGBURG *+ CLEAR     64  59  82 CALM      30.02R
WASHINGTON +   CLEAR     60  59  98 CALM      30.01R

$$

INZ062-063-066-070>080-084-089>092-260600-
SOUTH CENTRAL AND SOUTHEAST INDIANA

CITY           SKY/WX    TMP DP  RH WIND       PRES   REMARKS
BLOOMINGTON    CLEAR     62  60  93 CALM      30.01F

$$




USA.gov is the U.S. government's official web portal to all federal, state and local government web resources and services.